TimeMST,TemperatureF,Dew PointF,Humidity,Sea Level PressureIn,VisibilityMPH,Wind Direction,Wind SpeedMPH,Gust SpeedMPH,PrecipitationIn,Events,Conditions,WindDirDegrees,DateUTC
12:03 AM,-9999,-9999,N/A,30.27,1.8,NNE,16.1,23.0,0.00,,Unknown,20,2011-12-01 07:03:00
12:14 AM,-9999,-9999,N/A,30.27,2.5,NNE,15.0,-,0.00,,Unknown,20,2011-12-01 07:14:00
12:23 AM,-9999,-9999,N/A,30.28,6.0,NNE,18.4,-,0.00,,Unknown,20,2011-12-01 07:23:00
12:31 AM,-9999,-9999,N/A,30.28,6.0,NNE,20.7,28.8,0.00,,Unknown,20,2011-12-01 07:31:00
12:39 AM,-9999,-9999,N/A,30.29,6.0,NNE,17.3,31.1,0.00,,Unknown,20,2011-12-01 07:39:00
12:48 AM,-9999,-9999,N/A,30.30,6.0,NNE,25.3,33.4,0.00,,Unknown,20,2011-12-01 07:48:00
12:55 AM,-9999,-9999,N/A,30.31,4.0,NNE,25.3,33.4,0.00,,Unknown,20,2011-12-01 07:55:00
1:55 AM,-9999,-9999,N/A,30.36,6.0,NNE,17.3,25.3,0.00,,Unknown,20,2011-12-01 08:55:00
2:22 AM,-9999,-9999,N/A,30.38,10.0,NNE,20.7,28.8,0.01,,Overcast,20,2011-12-01 09:22:00
2:55 AM,-9999,-9999,N/A,30.40,10.0,NNE,15.0,24.2,0.01,,Overcast,20,2011-12-01 09:55:00
3:07 AM,-9999,-9999,N/A,30.41,10.0,North,18.4,23.0,N/A,,Overcast,10,2011-12-01 10:07:00
3:55 AM,-9999,-9999,N/A,30.45,10.0,North,21.9,28.8,N/A,,Overcast,360,2011-12-01 10:55:00
4:29 AM,-9999,-9999,N/A,30.48,10.0,North,16.1,24.2,N/A,,Overcast,10,2011-12-01 11:29:00
4:55 AM,-9999,-9999,N/A,30.50,10.0,North,15.0,24.2,N/A,,Overcast,10,2011-12-01 11:55:00
5:08 AM,-9999,-9999,N/A,30.51,10.0,North,16.1,24.2,N/A,,Overcast,10,2011-12-01 12:08:00
5:55 AM,-9999,-9999,N/A,30.54,10.0,North,10.4,-,N/A,,Overcast,10,2011-12-01 12:55:00
6:55 AM,-9999,-9999,N/A,30.58,10.0,North,3.5,-,N/A,,Overcast,360,2011-12-01 13:55:00
7:55 AM,-9999,-9999,N/A,30.62,10.0,North,12.7,24.2,N/A,,Overcast,360,2011-12-01 14:55:00
8:38 AM,-9999,-9999,N/A,30.63,10.0,North,5.8,-,N/A,,Scattered Clouds,360,2011-12-01 15:38:00
8:55 AM,-9999,-9999,N/A,30.64,10.0,North,5.8,-,N/A,,Clear,350,2011-12-01 15:55:00
9:55 AM,-9999,-9999,N/A,30.64,10.0,NW,11.5,-,N/A,,Clear,320,2011-12-01 16:55:00
10:55 AM,-9999,-9999,N/A,30.63,10.0,NNW,11.5,-,N/A,,Clear,330,2011-12-01 17:55:00
11:55 AM,-9999,-9999,N/A,30.60,10.0,NW,8.1,-,N/A,,Partly Cloudy,320,2011-12-01 18:55:00
12:55 PM,-9999,-9999,N/A,30.56,10.0,NW,10.4,-,N/A,,Clear,320,2011-12-01 19:55:00
1:55 PM,30.9,19.0,61,30.54,10.0,WNW,8.1,-,N/A,,Scattered Clouds,300,2011-12-01 20:55:00
2:55 PM,28.9,16.0,58,30.53,10.0,West,5.8,-,N/A,,Clear,280,2011-12-01 21:55:00
3:55 PM,26.1,18.0,71,30.52,10.0,WSW,6.9,-,N/A,,Clear,250,2011-12-01 22:55:00
4:55 PM,21.9,15.1,75,30.50,10.0,WSW,4.6,-,N/A,,Clear,240,2011-12-01 23:55:00
5:55 PM,19.9,15.1,81,30.47,10.0,West,3.5,-,N/A,,Clear,260,2011-12-02 00:55:00
6:55 PM,17.1,12.0,81,30.46,10.0,West,4.6,-,N/A,,Clear,260,2011-12-02 01:55:00
7:55 PM,19.9,14.0,78,30.41,10.0,South,5.8,-,N/A,,Clear,170,2011-12-02 02:55:00
8:55 PM,21.0,14.0,74,30.37,10.0,SSW,10.4,-,N/A,,Clear,200,2011-12-02 03:55:00
9:55 PM,19.9,14.0,78,30.35,10.0,Variable,5.8,-,N/A,,Clear,0,2011-12-02 04:55:00
10:55 PM,19.9,14.0,78,30.30,10.0,SSW,8.1,-,N/A,,Clear,200,2011-12-02 05:55:00
11:55 PM,19.0,12.9,77,30.23,10.0,South,6.9,-,N/A,,Clear,180,2011-12-02 06:55:00